"SCLK","SCET","ORBIT_NUMBER","ALTITUDE","LATITUDE_PLANEOGRAPHIC","LATITUDE_PLANETOCENTRIC","LOCAL_TRUE_SOLAR_TIME","WEST_LONGITUDE","X_SUN_DIR_DISTANCE","RHO_PRP_SUN_DISTANCE","SOLAR_ZENITH_ANGLE","ELECTRON_PLASMA_FREQUENCY","FPE_QUALITY","FPP_VERIFICATION","ELECTRON_PLASMA_DENSITY","ELECTRON_CYCLOTRON_PERIOD","FCP_QUALITY","B_MAGNITUDE"
"1/0366804908.57931",2014-12-16T10:15:12.893,13907,1562.00,31.30,31.06,"07:44:33",119.78,-1.380,0.460,161.54,7.20e+01,2,,6.43e+01,3.37e+00,1,1.06e+01
"1/0366804916.27981",2014-12-16T10:15:20.436,13907,1552.00,31.58,31.34,"07:42:23",119.79,-1.380,0.460,161.43,8.70e+01,2,,9.39e+01,3.40e+00,1,1.05e+01
"1/0366804923.63567",2014-12-16T10:15:27.979,13907,1541.00,31.87,31.63,"07:40:13",119.80,-1.380,0.460,161.32,9.20e+01,2,,1.05e+02,3.39e+00,2,1.05e+01
"1/0366804931.33683",2014-12-16T10:15:35.523,13907,1530.00,32.15,31.91,"07:38:03",119.81,-1.370,0.460,161.20,8.60e+01,2,,9.17e+01,,,
"1/0366804939.03733",2014-12-16T10:15:43.066,13907,1519.00,32.44,32.19,"07:35:53",119.82,-1.370,0.470,161.09,9.80e+01,2,,1.19e+02,3.47e+00,2,1.03e+01
"1/0366804946.39319",2014-12-16T10:15:50.609,13907,1508.00,32.72,32.48,"07:33:42",119.83,-1.360,0.470,160.96,9.00e+01,2,,1.00e+02,3.34e+00,1,1.07e+01
"1/0366804954.09369",2014-12-16T10:15:58.152,13907,1498.00,33.01,32.77,"07:31:32",119.84,-1.360,0.470,160.84,9.40e+01,2,,1.10e+02,3.39e+00,2,1.05e+01
"1/0366804961.44955",2014-12-16T10:16:05.695,13907,1487.00,33.30,33.05,"07:29:22",119.85,-1.360,0.470,160.71,9.70e+01,2,,1.17e+02,3.34e+00,2,1.07e+01
"1/0366804969.15070",2014-12-16T10:16:13.239,13907,1476.00,33.59,33.34,"07:29:29",119.85,-1.350,0.470,160.57,8.70e+01,2,,9.39e+01,3.29e+00,1,1.09e+01
"1/0366804976.50656",2014-12-16T10:16:20.782,13907,1466.00,33.89,33.64,"07:27:19",119.86,-1.350,0.480,160.43,8.50e+01,2,,8.96e+01,3.27e+00,2,1.09e+01
"1/0366804984.20706",2014-12-16T10:16:28.325,13907,1455.00,34.18,33.93,"07:25:09",119.87,-1.340,0.480,160.29,9.10e+01,2,,1.03e+02,3.35e+00,1,1.06e+01
"1/0366804991.56292",2014-12-16T10:16:35.868,13907,1444.00,34.47,34.22,"07:22:59",119.88,-1.340,0.480,160.15,8.60e+01,2,,9.17e+01,3.35e+00,1,1.06e+01
"1/0366804999.26342",2014-12-16T10:16:43.411,13907,1434.00,34.77,34.52,"07:23:06",119.88,-1.340,0.480,160.00,1.00e+02,2,,1.24e+02,3.45e+00,1,1.03e+01
"1/0366805006.61994",2014-12-16T10:16:50.955,13907,1423.00,35.07,34.81,"07:20:56",119.89,-1.330,0.490,159.84,9.20e+01,2,,1.05e+02,3.27e+00,1,1.09e+01
"1/0366805014.32044",2014-12-16T10:16:58.498,13907,1413.00,35.37,35.11,"07:18:46",119.90,-1.330,0.490,159.68,1.00e+02,2,,1.24e+02,3.25e+00,1,1.10e+01
"1/0366805022.02094",2014-12-16T10:17:06.041,13907,1402.00,35.67,35.41,"07:18:53",119.90,-1.320,0.490,159.52,1.03e+02,2,,1.32e+02,3.35e+00,1,1.06e+01
"1/0366805029.37680",2014-12-16T10:17:13.584,13907,1392.00,35.97,35.71,"07:16:43",119.91,-1.320,0.490,159.36,9.90e+01,2,,1.22e+02,3.35e+00,1,1.06e+01
"1/0366805037.07730",2014-12-16T10:17:21.127,13907,1381.00,36.27,36.01,"07:14:33",119.92,-1.310,0.500,159.19,9.60e+01,2,,1.14e+02,3.57e+00,1,1.00e+01
"1/0366805044.43382",2014-12-16T10:17:28.671,13907,1371.00,36.58,36.31,"07:14:40",119.92,-1.310,0.500,159.02,1.00e+02,2,,1.24e+02,3.55e+00,1,1.01e+01
"1/0366805052.13432",2014-12-16T10:17:36.214,13907,1360.00,36.88,36.61,"07:12:30",119.93,-1.310,0.500,158.84,1.03e+02,2,,1.32e+02,,,
"1/0366805059.49018",2014-12-16T10:17:43.757,13907,1350.00,37.19,36.92,"07:12:37",119.93,-1.300,0.500,158.66,1.18e+02,2,,1.73e+02,,,
"1/0366805067.19068",2014-12-16T10:17:51.300,13907,1340.00,37.50,37.23,"07:10:27",119.94,-1.300,0.510,158.48,1.22e+02,2,,1.85e+02,3.94e+00,1,9.08e+00
"1/0366805074.54654",2014-12-16T10:17:58.843,13907,1329.00,37.80,37.53,"07:10:35",119.94,-1.290,0.510,158.29,1.26e+02,2,,1.97e+02,3.87e+00,1,9.23e+00
"1/0366805082.24769",2014-12-16T10:18:06.387,13907,1319.00,38.12,37.84,"07:08:24",119.95,-1.290,0.510,158.10,1.24e+02,2,,1.91e+02,3.80e+00,1,9.39e+00
"1/0366805089.60355",2014-12-16T10:18:13.930,13907,1309.00,38.43,38.15,"07:08:32",119.95,-1.280,0.520,157.91,1.43e+02,2,,2.54e+02,,,
"1/0366805097.30405",2014-12-16T10:18:21.473,13907,1299.00,38.74,38.47,"07:08:39",119.95,-1.280,0.520,157.71,1.61e+02,2,,3.21e+02,,,
"1/0366805105.00455",2014-12-16T10:18:29.016,13907,1288.00,39.06,38.78,"07:08:46",119.95,-1.270,0.520,157.51,1.70e+02,2,,3.58e+02,,,
"1/0366805112.36041",2014-12-16T10:18:36.559,13907,1278.00,39.37,39.09,"07:06:36",119.96,-1.270,0.530,157.31,1.68e+02,2,,3.50e+02,,,
"1/0366805120.06157",2014-12-16T10:18:44.103,13907,1268.00,39.69,39.41,"07:06:44",119.96,-1.260,0.530,157.10,1.56e+02,2,,3.02e+02,,,
"1/0366805127.41743",2014-12-16T10:18:51.646,13907,1258.00,40.01,39.73,"07:06:51",119.96,-1.260,0.530,156.89,1.50e+02,2,,2.79e+02,,,
"1/0366805135.11793",2014-12-16T10:18:59.189,13907,1248.00,40.33,40.05,"07:06:58",119.96,-1.250,0.540,156.68,1.36e+02,2,,2.29e+02,,,
"1/0366805142.47379",2014-12-16T10:19:06.732,13907,1238.00,40.65,40.37,"07:07:06",119.96,-1.250,0.540,156.46,1.26e+02,2,,1.97e+02,,,
"1/0366805150.17429",2014-12-16T10:19:14.275,13907,1228.00,40.97,40.69,"07:07:13",119.96,-1.250,0.540,156.24,1.18e+02,2,,1.73e+02,4.40e+00,1,8.12e+00
"1/0366805157.53081",2014-12-16T10:19:21.819,13907,1218.00,41.30,41.01,"07:07:20",119.96,-1.240,0.550,156.02,1.23e+02,2,,1.88e+02,,,
"1/0366805165.23131",2014-12-16T10:19:29.362,13907,1208.00,41.62,41.34,"07:07:28",119.96,-1.240,0.550,155.79,1.27e+02,2,,2.00e+02,,,
"1/0366805172.58717",2014-12-16T10:19:36.905,13907,1198.00,41.95,41.66,"07:07:35",119.96,-1.230,0.550,155.56,1.27e+02,2,,2.00e+02,4.50e+00,1,7.94e+00
"1/0366805180.28767",2014-12-16T10:19:44.448,13907,1188.00,42.28,41.99,"07:07:42",119.96,-1.230,0.560,155.33,1.32e+02,2,,2.16e+02,,,
"1/0366805187.64353",2014-12-16T10:19:51.991,13907,1178.00,42.61,42.32,"07:07:50",119.96,-1.220,0.560,155.09,1.39e+02,2,,2.40e+02,,,
"1/0366805195.34468",2014-12-16T10:19:59.535,13907,1168.00,42.94,42.65,"07:07:57",119.96,-1.220,0.570,154.86,1.40e+02,2,,2.43e+02,,,
"1/0366805203.04518",2014-12-16T10:20:07.078,13907,1159.00,43.27,42.98,"07:08:04",119.96,-1.210,0.570,154.61,1.44e+02,2,,2.57e+02,,,
"1/0366805210.40104",2014-12-16T10:20:14.621,13907,1149.00,43.60,43.31,"07:10:29",119.95,-1.210,0.570,154.37,1.34e+02,2,,2.23e+02,,,
"1/0366805218.10154",2014-12-16T10:20:22.164,13907,1139.00,43.94,43.65,"07:10:36",119.95,-1.200,0.580,154.12,1.30e+02,2,,2.10e+02,,,
"1/0366805225.45740",2014-12-16T10:20:29.707,13907,1130.00,44.28,43.98,"07:13:01",119.94,-1.200,0.580,153.87,1.47e+02,2,,2.68e+02,,,
"1/0366805233.15856",2014-12-16T10:20:37.251,13907,1120.00,44.61,44.32,"07:13:09",119.94,-1.190,0.590,153.62,1.31e+02,2,,2.13e+02,,,
"1/0366805240.51442",2014-12-16T10:20:44.794,13907,1110.00,44.95,44.66,"07:15:34",119.93,-1.190,0.590,153.36,1.42e+02,2,,2.50e+02,,,
"1/0366805248.21492",2014-12-16T10:20:52.337,13907,1101.00,45.29,45.00,"07:15:41",119.93,-1.180,0.590,153.10,1.48e+02,2,,2.72e+02,,,
"1/0366805255.57078",2014-12-16T10:20:59.880,13907,1091.00,45.64,45.34,"07:18:06",119.92,-1.170,0.600,152.84,1.53e+02,2,,2.90e+02,,,
"1/0366805263.27128",2014-12-16T10:21:07.423,13907,1082.00,45.98,45.69,"07:20:31",119.91,-1.170,0.600,152.58,1.60e+02,2,,3.17e+02,,,
"1/0366805270.62780",2014-12-16T10:21:14.967,13907,1072.00,46.33,46.03,"07:20:38",119.91,-1.160,0.610,152.31,1.56e+02,2,,3.02e+02,,,
"1/0366805278.32830",2014-12-16T10:21:22.510,13907,1063.00,46.67,46.38,"07:23:03",119.90,-1.160,0.610,152.04,1.61e+02,2,,3.21e+02,,,
"1/0366805286.02880",2014-12-16T10:21:30.053,13907,1054.00,47.02,46.72,"07:25:28",119.89,-1.150,0.610,151.77,1.70e+02,2,,3.58e+02,,,
"1/0366805293.38466",2014-12-16T10:21:37.596,13907,1044.00,47.37,47.07,"07:27:52",119.88,-1.150,0.620,151.49,1.75e+02,2,,3.80e+02,,,
"1/0366805301.08516",2014-12-16T10:21:45.139,13907,1035.00,47.72,47.42,"07:30:17",119.87,-1.140,0.620,151.21,1.82e+02,2,,4.11e+02,,,
"1/0366805308.44167",2014-12-16T10:21:52.683,13907,1026.00,48.07,47.78,"07:32:42",119.86,-1.140,0.630,150.93,1.74e+02,2,,3.75e+02,,,
"1/0366805316.14217",2014-12-16T10:22:00.226,13907,1017.00,48.43,48.13,"07:35:07",119.85,-1.130,0.630,150.65,1.64e+02,2,,3.34e+02,,,
"1/0366805323.49803",2014-12-16T10:22:07.769,13907,1008.00,48.78,48.48,"07:39:49",119.83,-1.130,0.630,150.37,1.54e+02,2,,2.94e+02,,,
"1/0366805331.19853",2014-12-16T10:22:15.312,13907,999.00,49.14,48.84,"07:42:14",119.82,-1.120,0.640,150.08,1.53e+02,2,,2.90e+02,,,
"1/0366805338.55439",2014-12-16T10:22:22.855,13907,990.00,49.50,49.20,"07:44:39",119.81,-1.120,0.640,149.79,1.57e+02,2,,3.06e+02,,,
"1/0366805346.25555",2014-12-16T10:22:30.399,13907,981.00,49.86,49.56,"07:49:21",119.79,-1.110,0.650,149.49,1.41e+02,2,,2.47e+02,,,
"1/0366805353.61141",2014-12-16T10:22:37.942,13907,972.00,50.22,49.92,"07:54:04",119.77,-1.100,0.650,149.20,1.41e+02,2,,2.47e+02,,,
"1/0366805361.31191",2014-12-16T10:22:45.485,13907,963.00,50.58,50.28,"07:56:29",119.76,-1.100,0.660,148.90,1.49e+02,2,,2.75e+02,,,
"1/0366805369.01241",2014-12-16T10:22:53.028,13907,954.00,50.94,50.64,"08:01:11",119.74,-1.090,0.660,148.60,1.47e+02,2,,2.68e+02,,,
"1/0366805376.36827",2014-12-16T10:23:00.571,13907,945.00,51.31,51.01,"08:05:53",119.72,-1.090,0.670,148.30,1.53e+02,0,,2.90e+02,,,
"1/0366805376.36893",2014-12-16T10:23:00.572,13907,945.00,51.31,51.01,"08:05:53",119.72,-1.090,0.670,148.30,1.53e+02,2,,2.90e+02,,,
"1/0366805384.06943",2014-12-16T10:23:08.115,13907,936.00,51.67,51.38,"08:10:36",119.70,-1.080,0.670,147.99,1.57e+02,2,,3.06e+02,,,
"1/0366805391.42529",2014-12-16T10:23:15.658,13907,928.00,52.04,51.75,"08:15:18",119.68,-1.080,0.670,147.68,1.56e+02,2,,3.02e+02,,,
"1/0366805399.12579",2014-12-16T10:23:23.201,13907,919.00,52.41,52.11,"08:20:00",119.66,-1.070,0.680,147.37,1.38e+02,2,,2.36e+02,,,
"1/0366805406.48165",2014-12-16T10:23:30.744,13907,910.00,52.78,52.49,"08:27:00",119.63,-1.060,0.680,147.06,1.35e+02,2,,2.26e+02,,,
"1/0366805414.18280",2014-12-16T10:23:38.288,13907,902.00,53.15,52.86,"08:31:43",119.61,-1.060,0.690,146.75,1.33e+02,2,,2.19e+02,,,
"1/0366805421.53866",2014-12-16T10:23:45.831,13907,893.00,53.53,53.23,"08:38:42",119.58,-1.050,0.690,146.43,1.35e+02,2,,2.26e+02,,,
"1/0366805429.23916",2014-12-16T10:23:53.374,13907,885.00,53.90,53.61,"08:43:25",119.56,-1.050,0.700,146.11,1.49e+02,2,,2.75e+02,,,
"1/0366805436.59502",2014-12-16T10:24:00.917,13907,876.00,54.28,53.99,"08:50:25",119.53,-1.040,0.700,145.79,1.46e+02,2,,2.64e+02,,,
"1/0366805444.29552",2014-12-16T10:24:08.460,13907,868.00,54.66,54.36,"08:57:25",119.50,-1.030,0.710,145.46,1.50e+02,2,,2.79e+02,,,
"1/0366805451.65204",2014-12-16T10:24:16.004,13907,860.00,55.04,54.74,"09:04:24",119.47,-1.030,0.710,145.14,1.58e+02,2,,3.10e+02,,,
"1/0366805459.35254",2014-12-16T10:24:23.547,13907,852.00,55.42,55.13,"09:11:24",119.44,-1.020,0.710,144.81,1.57e+02,2,,3.06e+02,,,
"1/0366805467.05304",2014-12-16T10:24:31.090,13907,843.00,55.80,55.51,"09:20:42",119.40,-1.020,0.720,144.48,1.51e+02,2,,2.83e+02,,,
"1/0366805474.40890",2014-12-16T10:24:38.633,13907,835.00,56.18,55.89,"09:27:42",119.37,-1.010,0.720,144.15,1.48e+02,2,,2.72e+02,,,
"1/0366805482.10940",2014-12-16T10:24:46.176,13907,827.00,56.57,56.28,"09:36:59",119.33,-1.000,0.730,143.81,1.49e+02,2,,2.75e+02,,,
"1/0366805489.46591",2014-12-16T10:24:53.720,13907,819.00,56.95,56.67,"09:43:59",119.30,-1.000,0.730,143.47,1.50e+02,2,,2.79e+02,,,
"1/0366805497.16642",2014-12-16T10:25:01.263,13907,811.00,57.34,57.06,"09:53:16",119.26,-0.990,0.740,143.13,1.49e+02,2,,2.75e+02,,,
"1/0366805504.52228",2014-12-16T10:25:08.806,13907,803.00,57.73,57.45,"10:04:51",119.21,-0.980,0.740,142.79,1.46e+02,2,,2.64e+02,,,
"1/0366805512.22278",2014-12-16T10:25:16.349,13907,795.00,58.12,57.84,"10:14:08",119.17,-0.980,0.750,142.45,1.52e+02,2,,2.87e+02,,,
"1/0366805519.57864",2014-12-16T10:25:23.892,13907,788.00,58.51,58.23,"10:25:43",119.12,-0.970,0.750,142.10,1.60e+02,2,,3.17e+02,,,
"1/0366805527.27979",2014-12-16T10:25:31.436,13907,780.00,58.91,58.63,"10:35:01",119.08,-0.960,0.750,141.76,1.62e+02,2,,3.25e+02,,,
"1/0366805534.63565",2014-12-16T10:25:38.979,13907,772.00,59.30,59.02,"10:46:36",119.03,-0.960,0.760,141.41,1.59e+02,2,,3.14e+02,,,
"1/0366805542.33615",2014-12-16T10:25:46.522,13907,764.00,59.70,59.42,"10:58:10",118.98,-0.950,0.760,141.06,1.50e+02,2,,2.79e+02,,,
"1/0366805550.03665",2014-12-16T10:25:54.065,13907,757.00,60.10,59.82,"11:12:03",118.92,-0.950,0.770,140.70,1.46e+02,2,,2.64e+02,,,
"1/0366805557.39251",2014-12-16T10:26:01.608,13907,749.00,60.49,60.22,"11:23:38",118.87,-0.940,0.770,140.35,1.55e+02,2,,2.98e+02,,,
"1/0366805565.09367",2014-12-16T10:26:09.152,13907,742.00,60.89,60.62,"11:37:30",118.81,-0.930,0.780,139.99,1.57e+02,2,,3.06e+02,,,
"1/0366805572.44953",2014-12-16T10:26:16.695,13907,735.00,61.30,61.03,"11:51:23",118.75,-0.930,0.780,139.63,1.68e+02,2,,3.50e+02,,,
"1/0366805580.15003",2014-12-16T10:26:24.238,13907,727.00,61.70,61.43,"12:07:32",118.68,-0.920,0.790,139.27,1.68e+02,2,,3.50e+02,,,
"1/0366805587.50589",2014-12-16T10:26:31.781,13907,720.00,62.10,61.84,"12:23:42",118.61,-0.910,0.790,138.90,1.69e+02,2,,3.54e+02,,,
"1/0366805595.20639",2014-12-16T10:26:39.324,13907,713.00,62.51,62.24,"12:39:52",118.54,-0.910,0.790,138.54,1.68e+02,2,,3.50e+02,,,
"1/0366805602.56290",2014-12-16T10:26:46.868,13907,706.00,62.91,62.65,"12:56:02",118.47,-0.900,0.800,138.17,1.65e+02,2,,3.38e+02,,,
"1/0366805617.61927",2014-12-16T10:27:01.954,13907,692.00,63.73,63.47,"13:32:57",118.31,-0.890,0.810,137.43,1.59e+02,2,,3.14e+02,,,
"1/0366805625.31977",2014-12-16T10:27:09.497,13907,685.00,64.14,63.89,"13:51:24",118.23,-0.880,0.810,137.06,1.64e+02,2,,3.34e+02,,,
"1/0366805633.02027",2014-12-16T10:27:17.040,13907,678.00,64.55,64.30,"14:12:09",118.14,-0.870,0.820,136.68,1.66e+02,2,,3.42e+02,,,
"1/0366805640.37678",2014-12-16T10:27:24.584,13907,671.00,64.97,64.72,"14:32:54",118.05,-0.860,0.820,136.31,1.60e+02,2,,3.17e+02,,,
"1/0366805648.07728",2014-12-16T10:27:32.127,13907,664.00,65.38,65.13,"14:53:39",117.96,-0.860,0.820,135.93,1.57e+02,2,,3.06e+02,,,
"1/0366805655.43314",2014-12-16T10:27:39.670,13907,658.00,65.80,65.55,"15:16:42",117.86,-0.850,0.830,135.55,1.50e+02,2,,2.79e+02,4.85e+00,1,7.37e+00
"1/0366805663.13364",2014-12-16T10:27:47.213,13907,651.00,66.21,65.97,"15:42:02",117.75,-0.840,0.830,135.17,1.47e+02,2,,2.68e+02,4.70e+00,1,7.60e+00
"1/0366805670.48950",2014-12-16T10:27:54.756,13907,645.00,66.63,66.39,"16:07:22",117.64,-0.840,0.840,134.78,1.46e+02,2,,2.64e+02,4.67e+00,1,7.65e+00
"1/0366805678.19066",2014-12-16T10:28:02.300,13907,638.00,67.05,66.81,"16:32:41",117.53,-0.830,0.840,134.40,1.48e+02,2,,2.72e+02,4.65e+00,1,7.68e+00
"1/0366805685.54652",2014-12-16T10:28:09.843,13907,632.00,67.47,67.24,"17:00:19",117.41,-0.820,0.850,134.01,1.41e+02,2,,2.47e+02,4.60e+00,1,7.77e+00
"1/0366805693.24702",2014-12-16T10:28:17.386,13907,626.00,67.89,67.66,"17:30:14",117.28,-0.820,0.850,133.62,1.48e+02,2,,2.72e+02,4.50e+00,1,7.94e+00
"1/0366805700.60288",2014-12-16T10:28:24.929,13907,619.00,68.31,68.09,"18:00:09",117.15,-0.810,0.850,133.23,1.45e+02,2,,2.61e+02,4.32e+00,1,8.27e+00
"1/0366805708.30338",2014-12-16T10:28:32.472,13907,613.00,68.74,68.52,"18:32:21",117.01,-0.800,0.860,132.84,1.45e+02,2,,2.61e+02,,,
"1/0366805716.00453",2014-12-16T10:28:40.016,13907,607.00,69.16,68.94,"19:06:51",116.86,-0.790,0.860,132.45,1.46e+02,2,,2.64e+02,4.27e+00,1,8.37e+00
"1/0366805723.36039",2014-12-16T10:28:47.559,13907,601.00,69.59,69.37,"19:41:21",116.71,-0.790,0.870,132.05,1.46e+02,2,,2.64e+02,,,
"1/0366805731.06089",2014-12-16T10:28:55.102,13907,595.00,70.02,69.80,"20:20:26",116.54,-0.780,0.870,131.66,1.50e+02,2,,2.79e+02,,,
"1/0366805738.41676",2014-12-16T10:29:02.645,13907,589.00,70.44,70.23,"20:59:31",116.37,-0.770,0.880,131.26,1.48e+02,2,,2.72e+02,4.12e+00,1,8.67e+00
"1/0366805746.11726",2014-12-16T10:29:10.188,13907,583.00,70.87,70.67,"21:40:54",116.19,-0.770,0.880,130.86,1.60e+02,2,,3.17e+02,,,
"1/0366805753.47377",2014-12-16T10:29:17.732,13907,578.00,71.30,71.10,"22:24:34",116.00,-0.760,0.880,130.46,1.56e+02,2,,3.02e+02,4.15e+00,1,8.60e+00
"1/0366805761.17427",2014-12-16T10:29:25.275,13907,572.00,71.73,71.53,"23:10:31",115.80,-0.750,0.890,130.05,1.57e+02,2,,3.06e+02,,,
"1/0366805768.53013",2014-12-16T10:29:32.818,13907,567.00,72.16,71.97,"23:58:46",115.59,-0.740,0.890,129.65,1.57e+02,2,,3.06e+02,,,
"1/0366805776.23063",2014-12-16T10:29:40.361,13907,561.00,72.60,72.41,"00:51:37",115.36,-0.740,0.900,129.24,1.51e+02,2,,2.83e+02,4.22e+00,1,8.47e+00
"1/0366805783.58649",2014-12-16T10:29:47.904,13907,556.00,73.03,72.84,"01:44:27",115.13,-0.730,0.900,128.83,1.51e+02,2,,2.83e+02,4.35e+00,1,8.21e+00
"1/0366805791.28765",2014-12-16T10:29:55.448,13907,550.00,73.46,73.28,"02:44:09",114.87,-0.720,0.900,128.43,1.51e+02,2,,2.83e+02,4.47e+00,1,8.00e+00
"1/0366805798.64351",2014-12-16T10:30:02.991,13907,545.00,73.90,73.72,"03:46:09",114.60,-0.710,0.910,128.01,1.49e+02,2,,2.75e+02,,,
"1/0366805806.34401",2014-12-16T10:30:10.534,13907,540.00,74.33,74.16,"04:50:27",114.32,-0.710,0.910,127.60,1.43e+02,2,,2.54e+02,4.33e+00,1,8.24e+00
"1/0366805814.04451",2014-12-16T10:30:18.077,13907,535.00,74.77,74.60,"05:59:20",114.02,-0.700,0.920,127.19,1.51e+02,2,,2.83e+02,,,
"1/0366805821.40037",2014-12-16T10:30:25.620,13907,530.00,75.21,75.04,"07:15:05",113.69,-0.690,0.920,126.77,1.61e+02,2,,3.21e+02,,,
"1/0366805829.10152",2014-12-16T10:30:33.164,13907,525.00,75.64,75.48,"08:33:07",113.35,-0.680,0.920,126.36,1.61e+02,2,,3.21e+02,,,
"1/0366805836.45738",2014-12-16T10:30:40.707,13907,520.00,76.08,75.92,"09:58:03",112.98,-0.680,0.930,125.94,1.68e+02,2,,3.50e+02,,,
"1/0366805844.15788",2014-12-16T10:30:48.250,13907,515.00,76.52,76.36,"11:29:50",112.58,-0.670,0.930,125.52,1.70e+02,2,,3.58e+02,,,
"1/0366805851.51375",2014-12-16T10:30:55.793,13907,511.00,76.96,76.81,"13:08:31",112.15,-0.660,0.930,125.10,1.71e+02,2,,3.63e+02,,,
"1/0366805859.21425",2014-12-16T10:31:03.336,13907,506.00,77.39,77.25,"14:51:46",111.70,-0.650,0.940,124.68,1.73e+02,2,,3.71e+02,,,
"1/0366805866.57076",2014-12-16T10:31:10.880,13907,501.00,77.83,77.69,"16:46:29",111.20,-0.640,0.940,124.26,1.71e+02,2,,3.63e+02,,,
"1/0366805874.27126",2014-12-16T10:31:18.423,13907,497.00,78.27,78.14,"18:48:04",110.67,-0.640,0.950,123.83,1.79e+02,2,,3.97e+02,,,
"1/0366805881.62712",2014-12-16T10:31:25.966,13907,493.00,78.71,78.58,"21:01:07",110.09,-0.630,0.950,123.41,1.85e+02,2,,4.24e+02,,,
"1/0366805889.32762",2014-12-16T10:31:33.509,13907,488.00,79.15,79.02,"23:25:37",109.46,-0.620,0.950,122.98,1.93e+02,2,,4.62e+02,,,
"1/0366805897.02812",2014-12-16T10:31:41.052,13907,484.00,79.58,79.46,"02:01:35",108.78,-0.610,0.960,122.55,1.89e+02,2,,4.43e+02,,,
"1/0366805904.38464",2014-12-16T10:31:48.596,13907,480.00,80.02,79.90,"04:53:36",108.03,-0.610,0.960,122.13,1.84e+02,2,,4.20e+02,,,
"1/0366805912.08514",2014-12-16T10:31:56.139,13907,476.00,80.46,80.34,"08:01:39",107.21,-0.600,0.960,121.70,1.85e+02,2,,4.24e+02,,,
"1/0366805919.44100",2014-12-16T10:32:03.682,13907,472.00,80.89,80.78,"11:28:02",106.31,-0.590,0.970,121.26,1.79e+02,2,,3.97e+02,,,
"1/0366805927.14150",2014-12-16T10:32:11.225,13907,468.00,81.32,81.22,"15:17:21",105.31,-0.580,0.970,120.83,1.66e+02,2,,3.42e+02,,,
"1/0366805934.49801",2014-12-16T10:32:18.769,13907,465.00,81.75,81.65,"19:29:34",104.21,-0.570,0.970,120.40,1.49e+02,2,,2.75e+02,,,
"1/0366805942.19851",2014-12-16T10:32:26.312,13907,461.00,82.18,82.08,"00:11:35",102.98,-0.570,0.980,119.96,1.47e+02,2,,2.68e+02,,,
"1/0366805949.55437",2014-12-16T10:32:33.855,13907,457.00,82.60,82.51,"05:27:59",101.60,-0.560,0.980,119.53,1.71e+02,2,,3.63e+02,,,
"1/0366805957.25487",2014-12-16T10:32:41.398,13907,454.00,83.02,82.94,"11:23:20",100.05,-0.550,0.980,119.09,1.73e+02,2,,3.71e+02,,,
"1/0366805964.61073",2014-12-16T10:32:48.941,13907,450.00,83.44,83.36,"18:04:32",98.30,-0.540,0.990,118.66,1.85e+02,2,,4.24e+02,,,
"1/0366805972.31189",2014-12-16T10:32:56.485,13907,447.00,83.84,83.77,"01:40:44",96.31,-0.530,0.990,118.22,1.88e+02,2,,4.38e+02,,,
"1/0366805980.01239",2014-12-16T10:33:04.028,13907,444.00,84.24,84.17,"10:23:23",94.03,-0.520,0.990,117.78,1.73e+02,2,,3.71e+02,,,
"1/0366805987.36825",2014-12-16T10:33:11.571,13907,441.00,84.63,84.57,"20:23:58",91.41,-0.520,1.000,117.34,1.53e+02,2,,2.90e+02,3.94e+00,1,9.08e+00
"1/0366805995.06875",2014-12-16T10:33:19.114,13907,438.00,85.01,84.95,"07:58:31",88.38,-0.510,1.000,116.90,1.42e+02,2,,2.50e+02,,,
"1/0366806002.42461",2014-12-16T10:33:26.657,13907,435.00,85.37,85.31,"21:27:39",84.85,-0.500,1.000,116.45,1.11e+02,2,,1.53e+02,3.30e+00,1,1.08e+01
"1/0366806010.12577",2014-12-16T10:33:34.201,13907,432.00,85.71,85.66,"13:09:43",80.74,-0.490,1.010,116.01,1.03e+02,2,,1.32e+02,,,
"1/0366806017.48163",2014-12-16T10:33:41.744,13907,429.00,86.03,85.98,"07:32:13",75.93,-0.480,1.010,115.57,7.00e+01,2,,6.08e+01,2.37e+00,2,1.50e+01
"1/0366806025.18213",2014-12-16T10:33:49.287,13907,426.00,86.31,86.26,"04:55:46",70.33,-0.480,1.010,115.12,8.20e+01,2,,8.34e+01,2.34e+00,2,1.53e+01
"1/0366806032.53799",2014-12-16T10:33:56.830,13907,424.00,86.55,86.51,"05:36:24",63.87,-0.470,1.020,114.68,9.70e+01,2,,1.17e+02,2.27e+00,2,1.57e+01
"1/0366806040.23849",2014-12-16T10:34:04.373,13907,421.00,86.74,86.70,"09:41:01",56.52,-0.460,1.020,114.23,1.14e+02,2,,1.61e+02,2.17e+00,2,1.64e+01
"1/0366806047.59500",2014-12-16T10:34:11.917,13907,419.00,86.87,86.83,"16:42:07",48.40,-0.450,1.020,113.78,1.27e+02,2,,2.00e+02,2.12e+00,2,1.68e+01
"1/0366806055.29550",2014-12-16T10:34:19.460,13907,417.00,86.94,86.90,"01:44:40",39.75,-0.440,1.020,113.34,1.32e+02,2,,2.16e+02,2.07e+00,2,1.73e+01
"1/0366806062.65136",2014-12-16T10:34:27.003,13907,414.00,86.93,86.89,"11:28:29",30.92,-0.430,1.030,112.89,1.31e+02,2,,2.13e+02,1.99e+00,2,1.79e+01
"1/0366806070.35186",2014-12-16T10:34:34.546,13907,412.00,86.85,86.81,"20:17:17",22.33,-0.430,1.030,112.44,1.30e+02,2,,2.10e+02,1.96e+00,2,1.82e+01
"1/0366806078.05236",2014-12-16T10:34:42.089,13907,410.00,86.70,86.66,"02:50:52",14.33,-0.420,1.030,111.99,1.21e+02,2,,1.82e+02,1.90e+00,2,1.88e+01
"1/0366806085.40888",2014-12-16T10:34:49.633,13907,408.00,86.50,86.45,"06:18:49",7.14,-0.410,1.040,111.54,1.19e+02,2,,1.76e+02,1.90e+00,2,1.88e+01
"1/0366806093.10938",2014-12-16T10:34:57.176,13907,406.00,86.24,86.19,"06:25:05",0.83,-0.400,1.040,111.09,1.27e+02,2,,2.00e+02,1.84e+00,2,1.94e+01
"1/0366806100.46524",2014-12-16T10:35:04.719,13907,405.00,85.95,85.89,"20:08:20",355.38,-0.390,1.040,110.64,1.22e+02,2,,1.85e+02,1.83e+00,2,1.96e+01
"1/0366806108.16574",2014-12-16T10:35:12.262,13907,403.00,85.62,85.56,"14:01:02",350.70,-0.380,1.040,110.18,1.17e+02,2,,1.70e+02,1.82e+00,2,1.96e+01
"1/0366806115.52160",2014-12-16T10:35:19.805,13907,401.00,85.27,85.21,"05:20:11",346.69,-0.370,1.050,109.73,1.17e+02,2,,1.70e+02,1.81e+00,2,1.97e+01
"1/0366806123.22276",2014-12-16T10:35:27.349,13907,400.00,84.89,84.83,"18:26:24",343.26,-0.370,1.050,109.28,1.20e+02,2,,1.79e+02,1.78e+00,2,2.00e+01
"1/0366806130.57862",2014-12-16T10:35:34.892,13907,399.00,84.50,84.43,"05:42:37",340.31,-0.360,1.050,108.82,1.64e+02,2,,3.34e+02,1.82e+00,2,1.96e+01
"1/0366806138.27912",2014-12-16T10:35:42.435,13907,397.00,84.10,84.03,"15:29:27",337.75,-0.350,1.050,108.37,1.96e+02,2,,4.76e+02,1.83e+00,1,1.96e+01
"1/0366806145.63498",2014-12-16T10:35:49.978,13907,396.00,83.69,83.61,"00:00:39",335.52,-0.340,1.060,107.92,2.24e+02,2,,6.22e+02,1.85e+00,1,1.93e+01
"1/0366806153.33548",2014-12-16T10:35:57.521,13907,395.00,83.27,83.18,"07:25:23",333.58,-0.330,1.060,107.46,2.58e+02,2,,8.25e+02,1.93e+00,1,1.85e+01
"1/0366806161.03663",2014-12-16T10:36:05.065,13907,394.00,82.84,82.75,"13:59:42",331.86,-0.320,1.060,107.01,2.10e+02,2,,5.47e+02,1.91e+00,1,1.87e+01
"1/0366806168.39249",2014-12-16T10:36:12.608,13907,393.00,82.40,82.30,"19:45:53",330.35,-0.310,1.060,106.55,2.07e+02,2,,5.31e+02,,,
"1/0366806176.09299",2014-12-16T10:36:20.151,13907,392.00,81.96,81.86,"00:55:25",329.00,-0.310,1.070,106.09,2.43e+02,2,,7.32e+02,2.11e+00,1,1.69e+01